Date String (YYYY-MM-DD hh:mm:ss) UTC,Instrument flags,absolute air pressure of the measurement (hPa),sample flow rate (lpm),inlet stack bypass flow (lpm),air temperature of the measurement (°C),ambient temperature measured by the external sensor (°C),aerosol sample conditioner tube jacket temperature (°C),OPC LED temperature (°C),internal box temperature (°C),relative humidity of the measurement (%),span deviation,mass concentration of particles derived from Lorenz-Mie calculation of OPC scattering (μg/m³),mass concentration of particles derived from Lorenz-Mie calculation of OPC scattering (μg/m³),mass concentration of particles derived from Lorenz-Mie calculation of OPC scattering (μg/m³)
DateTimeUTC,F1_M11,P_M11,Q1_M11,Q2_M11,T1_M11,T2_M11,T3_M11,T4_M11,T5_M11,U1_M11,ZSPAN_M11,X2_M11,X0_M11,X1_M11
2023-12-08 16:00:00,SystemResetWarning,0821.3,5.00,000.00,021.0,020.2,000.0,029.3,022.4,14.2,0000.0,0002.01,0007.69,0001.36
2023-12-08 16:01:00,SystemResetWarning,0821.3,4.99,000.00,021.0,020.2,000.0,029.3,022.4,14.2,0000.0,0002.10,0007.53,0001.38
2023-12-08 16:02:00,SystemResetWarning,0821.3,5.00,000.00,021.0,020.2,000.0,029.3,022.4,14.2,0000.0,0002.19,0007.34,0001.41
2023-12-08 16:03:00,SystemResetWarning,0821.3,5.01,000.00,021.0,020.2,000.0,029.3,022.4,14.3,0000.0,0002.34,0007.71,0001.43
2023-12-08 16:04:00,SystemResetWarning,0821.3,5.00,000.00,021.0,020.2,000.0,029.3,022.4,14.2,0000.0,0002.69,0008.55,0001.44
2023-12-08 16:05:00,SystemResetWarning,0821.3,5.00,000.00,021.1,020.2,000.0,029.3,022.4,14.0,0000.0,0003.09,0009.72,0001.47
2023-12-08 16:06:00,SystemResetWarning,0821.3,5.00,000.00,021.1,020.3,000.0,029.3,022.4,14.1,0000.0,0003.32,0011.08,0001.53
2023-12-08 16:07:00,SystemResetWarning,0821.4,5.00,000.00,021.1,020.3,000.0,029.3,022.4,14.0,0000.0,0003.58,0012.75,0001.58
2023-12-08 16:08:00,SystemResetWarning,0821.4,4.98,000.00,021.1,020.3,000.0,029.3,022.5,13.9,0000.0,0003.78,0014.94,0001.62
2023-12-08 16:09:00,SystemResetWarning,0821.4,5.00,000.00,021.1,020.3,000.0,029.3,022.4,13.6,0000.0,0004.03,0016.25,0001.66
2023-12-08 16:10:00,SystemResetWarning,0821.4,5.01,000.00,021.1,020.3,000.0,029.3,022.4,13.4,0000.0,0004.25,0018.16,0001.70
2023-12-08 16:11:00,SystemResetWarning,0821.4,5.01,000.00,021.1,020.3,000.0,029.3,022.4,13.4,0000.0,0004.40,0019.02,0001.72
2023-12-08 16:12:00,SystemResetWarning,0821.6,4.98,000.00,021.1,020.3,000.0,029.3,022.4,13.4,0000.0,0004.50,0019.56,0001.73
2023-12-08 16:13:00,SystemResetWarning,0821.8,4.99,000.00,021.1,020.3,000.0,029.3,022.4,13.4,0000.0,0004.59,0021.37,0001.74
2023-12-08 16:14:00,SystemResetWarning,0821.9,5.00,000.00,021.1,020.3,000.0,029.3,022.5,13.4,0000.0,0004.66,0022.24,0001.74
2023-12-08 16:15:00,SystemResetWarning,0822.0,5.01,000.00,021.1,020.3,000.0,029.4,022.4,13.7,0000.0,0004.57,0022.54,0001.73
2023-12-08 16:16:00,SystemResetWarning,0822.0,5.00,000.00,021.1,020.3,000.0,029.4,022.4,14.1,0000.0,0004.42,0021.89,0001.72
2023-12-08 16:17:00,SystemResetWarning,0821.7,5.00,000.00,021.1,020.3,000.0,029.4,022.4,14.2,0000.0,0004.31,0020.77,0001.70
2023-12-08 16:18:00,SystemResetWarning,0821.5,4.99,000.00,021.1,020.3,000.0,029.4,022.5,13.9,0000.0,0004.06,0018.86,0001.66
2023-12-08 16:19:00,SystemResetWarning,0821.7,5.00,000.00,021.1,020.3,000.0,029.4,022.5,13.9,0000.0,0003.85,0016.54,0001.62
2023-12-08 16:20:00,SystemResetWarning,0821.6,5.00,000.00,021.1,020.3,000.0,029.4,022.5,13.7,0000.0,0003.59,0014.50,0001.58
2023-12-08 16:21:00,SystemResetWarning,0821.6,5.00,000.00,021.1,020.3,000.0,029.4,022.5,13.6,0000.0,0003.35,0012.41,0001.54
2023-12-08 16:22:00,SystemResetWarning,0821.6,4.99,000.00,021.1,020.3,000.0,029.4,022.5,13.6,0000.0,0003.22,0011.58,0001.53
2023-12-08 16:23:00,SystemResetWarning,0821.6,5.00,000.00,021.1,020.3,000.0,029.4,022.5,13.6,0000.0,0003.05,0010.96,0001.52
2023-12-08 16:24:00,SystemResetWarning,0821.6,5.01,000.00,021.1,020.3,000.0,029.4,022.5,13.6,0000.0,0002.85,0009.80,0001.50
2023-12-08 16:25:00,SystemResetWarning,0821.7,5.01,000.00,021.1,020.3,000.0,029.4,022.4,13.6,0000.0,0002.62,0008.90,0001.49
2023-12-08 16:26:00,SystemResetWarning,0821.6,5.00,000.00,021.2,020.3,000.0,029.4,022.5,13.5,0000.0,0002.47,0008.69,0001.49
2023-12-08 16:27:00,SystemResetWarning,0821.5,5.00,000.00,021.2,020.3,000.0,029.4,022.5,13.5,0000.0,0002.37,0007.35,0001.48
2023-12-08 16:28:00,SystemResetWarning,0821.6,4.99,000.00,021.2,020.3,000.0,029.4,022.5,13.3,0000.0,0002.27,0007.22,0001.47
2023-12-08 16:29:00,SystemResetWarning,0821.6,4.99,000.00,021.2,020.4,000.0,029.4,022.5,13.3,0000.0,0002.22,0007.33,0001.46
2023-12-08 16:30:00,SystemResetWarning,0821.6,4.99,000.00,021.2,020.4,000.0,029.4,022.5,13.2,0000.0,0002.22,0007.42,0001.46
2023-12-08 16:31:00,SystemResetWarning,0821.6,5.01,000.00,021.2,020.4,000.0,029.4,022.5,13.3,0000.0,0002.24,0007.65,0001.46
2023-12-08 16:32:00,SystemResetWarning,0821.6,5.01,000.00,021.2,020.4,000.0,029.4,022.5,13.3,0000.0,0002.26,0007.91,0001.47
2023-12-08 16:33:00,SystemResetWarning,0821.6,5.00,000.00,021.2,020.4,000.0,029.4,022.5,13.4,0000.0,0002.20,0008.35,0001.47
2023-12-08 16:34:00,SystemResetWarning,0821.6,4.99,000.00,021.2,020.4,000.0,029.4,022.5,13.3,0000.0,0002.23,0008.46,0001.46
2023-12-08 16:35:00,SystemResetWarning,0821.6,4.99,000.00,021.2,020.4,000.0,029.4,022.6,13.2,0000.0,0002.29,0008.12,0001.48
2023-12-08 16:36:00,SystemResetWarning,0821.7,5.01,000.00,021.2,020.4,000.0,029.4,022.6,12.9,0000.0,0002.30,0007.88,0001.47
2023-12-08 16:37:00,SystemResetWarning,0821.7,5.01,000.00,021.2,020.4,000.0,029.5,022.6,12.8,0000.0,0002.29,0007.04,0001.46
2023-12-08 16:38:00,SystemResetWarning,0821.6,4.99,000.00,021.2,020.4,000.0,029.5,022.5,13.0,0000.0,0002.26,0007.09,0001.46
2023-12-08 16:39:00,SystemResetWarning,0821.6,4.99,000.00,021.2,020.4,000.0,029.5,022.5,13.0,0000.0,0002.26,0007.19,0001.47
2023-12-08 16:40:00,SystemResetWarning,0821.6,5.00,000.00,021.2,020.4,000.0,029.5,022.5,13.0,0000.0,0002.21,0007.23,0001.47
2023-12-08 16:41:00,SystemResetWarning,0821.7,5.00,000.00,021.2,020.4,000.0,029.5,022.5,13.0,0000.0,0002.24,0007.15,0001.49
2023-12-08 16:42:00,SystemResetWarning,0821.6,5.01,000.00,021.2,020.4,000.0,029.5,022.6,13.0,0000.0,0002.30,0006.89,0001.50
2023-12-08 16:43:00,SystemResetWarning,0821.6,5.00,000.00,021.2,020.4,000.0,029.5,022.6,12.9,0000.0,0002.32,0006.84,0001.51
2023-12-08 16:44:00,SystemResetWarning,0821.6,5.00,000.00,021.2,020.4,000.0,029.5,022.6,12.9,0000.0,0002.39,0005.91,0001.51
2023-12-08 16:45:00,SystemResetWarning,0821.7,4.98,000.00,021.2,020.4,000.0,029.5,022.6,13.0,0000.0,0002.42,0006.59,0001.51
2023-12-08 16:46:00,SystemResetWarning,0821.6,4.99,000.00,021.2,020.5,000.0,029.5,022.6,13.0,0000.0,0002.38,0006.49,0001.51
2023-12-08 16:47:00,SystemResetWarning,0821.7,5.01,000.00,021.2,020.5,000.0,029.5,022.6,13.0,0000.0,0002.39,0006.17,0001.51
2023-12-08 16:48:00,SystemResetWarning,0821.6,5.01,000.00,021.2,020.5,000.0,029.5,022.6,13.0,0000.0,0002.41,0006.14,0001.52
2023-12-08 16:49:00,SystemResetWarning,0821.7,4.99,000.00,021.2,020.5,000.0,029.5,022.6,13.3,0000.0,0002.39,0005.90,0001.52
2023-12-08 16:50:00,SystemResetWarning,0821.6,4.98,000.00,021.2,020.4,000.0,029.5,022.6,13.1,0000.0,0002.43,0006.13,0001.53
2023-12-08 16:51:00,SystemResetWarning,0821.6,5.00,000.00,021.2,020.4,000.0,029.5,022.6,13.0,0000.0,0002.46,0005.91,0001.55
2023-12-08 16:52:00,SystemResetWarning,0821.6,5.01,000.00,021.2,020.4,000.0,029.5,022.6,13.3,0000.0,0002.46,0006.88,0001.54
2023-12-08 16:53:00,SystemResetWarning,0821.6,5.00,000.00,021.3,020.4,000.0,029.5,022.6,13.2,0000.0,0002.43,0006.97,0001.55
2023-12-08 16:54:00,SystemResetWarning,0821.6,5.00,000.00,021.3,020.4,000.0,029.5,022.6,13.3,0000.0,0002.39,0006.81,0001.55
2023-12-08 16:55:00,SystemResetWarning,0821.6,5.01,000.00,021.3,020.4,000.0,029.5,022.6,13.2,0000.0,0002.35,0007.49,0001.56
2023-12-08 16:56:00,SystemResetWarning,0821.7,5.00,000.00,021.3,020.5,000.0,029.5,022.5,12.8,0000.0,0002.34,0007.33,0001.57
2023-12-08 16:57:00,SystemResetWarning,0821.6,5.00,000.00,021.2,020.4,000.0,029.5,022.5,12.7,0000.0,0002.36,0007.29,0001.59
2023-12-08 16:58:00,SystemResetWarning,0821.5,5.00,000.00,021.3,020.5,000.0,029.5,022.5,13.0,0000.0,0002.29,0007.29,0001.59
2023-12-08 16:59:00,SystemResetWarning,0821.6,5.01,000.00,021.3,020.4,000.0,029.5,022.5,13.2,0000.0,0002.27,0007.47,0001.59
